Tracking 20376 objects as of 20-Feb-2020
HD Live streaming from Space Station
objects crossing your sky now
Track the group of recently launched Starlink satellites

GORIZONT 6

Track GORIZONT 6 now!
GORIZONT 6 is classified as:


NORAD ID: 13624
Int'l Code: 1982-103A
Perigee: 35,763.7 km
Apogee: 35,784.4 km
Inclination: 12.1 °
Period: 1,435.1 minutes
Semi major axis: 42145 km
RCS: 3.1622 m2 (large)
Launch date: October 20, 1982
Source: Commonwealth of Independent States (former USSR) (CIS)
Launch site: TYURATAM MISSILE AND SPACE COMPLEX (TTMTR)
aabbcc
Your satellite tracking list
Your tracking list is empty




NASA's NSSDC Master Catalog

Two Line Element Set (TLE):
1 13624U 82103A   20050.16730094 -.00000304 +00000-0 +00000-0 0  9995
2 13624 012.1325 323.1117 0002461 003.8582 185.8439 01.00342088097784
Source of the keplerian elements: AFSPC